Ionia, MI

9:30 PM EST on January 17, 2018 (GMT -0500)
Ionia

Weather History for KY70 - July, 2013

Change the Weather History Date:

Monday, July 22, 2013

  Actual Average (KGRR) Record (KGRR)
Temperature  
Mean Temperature 74 °F -  
Max Temperature 83 °F 82 °F 97 °F (1934)
Min Temperature 66 °F 60 °F 43 °F (1947)
Cooling Degree Days 10    
Growing Degree Days 24 (Base 50)    
Moisture  
Dew Point 65 °F    
Average Humidity 77    
Maximum Humidity 99    
Minimum Humidity 50    
Precipitation  
Precipitation 0.26 in - - ()
Sea Level Pressure  
Sea Level Pressure 29.85 in    
Wind  
Wind Speed 6 mph (South)    
Max Wind Speed 13 mph    
Max Gust Speed 18 mph    
Visibility 8 miles    
Events Rain    
Averages and records for this station are not official NWS values.
T = Trace of Precipitation, MM = Missing Value Source: NWS Daily Summary

Daily Weather History Graph

Daily Weather History Graph

Search for Another Location

Airport or City:

Trip Planner

Search our weather history database for the weather conditions in past years. The results will help you decide how hot, cold, wet, or windy it might be!

Date:

Astronomy

Jul. 22, 2013 Rise Set
Actual Time 6:21 AM EDT 9:11 PM EDT
Civil Twilight 5:48 AM EDT 9:44 PM EDT
Nautical Twilight 5:06 AM EDT 10:26 PM EDT
Astronomical Twilight 4:17 AM EDT 11:15 PM EDT
Moon 8:54 PM EDT (7/22) 6:18 AM EDT (7/22)
Length of Visible Light 15h 56m
Length of Day
14h 49m
Full, 100% of the Moon is Illuminated
Jul 22
Full
Jul 22
Full
Jul 29
Last Quarter
Aug 6
New
Aug 14
First Quarter

Hourly Weather History & Observations

Time (EDT) Temp. Heat Index Dew Point Humidity Pressure Visibility Wind Dir Wind Speed Gust Speed Precip Events Conditions
12:14 AM 70.5 °F - 64.9 °F 82% 29.98 in 10.0 mi West 9.2 mph 18.4 mph N/A Rain Light Rain
12:34 AM 68.2 °F - 66.2 °F 93% 29.99 in 5.0 mi West 10.4 mph - 0.05 in Rain Heavy Rain
12:54 AM 68.0 °F - 66.6 °F 95% 29.98 in 5.0 mi West 8.1 mph - 0.14 in Rain Heavy Rain
1:14 AM 67.6 °F - 66.6 °F 96% 29.96 in 3.0 mi Calm Calm - 0.06 in Rain Rain
1:34 AM 67.6 °F - 66.6 °F 96% 29.95 in 7.0 mi ESE 6.9 mph - 0.09 in Rain Rain
1:54 AM 67.5 °F - 66.7 °F 98% 29.93 in 7.0 mi ESE 5.8 mph - 0.12 in Rain Light Rain
2:14 AM 67.3 °F - 66.6 °F 98% 29.92 in 7.0 mi East 5.8 mph - N/A   Mostly Cloudy
2:34 AM 67.3 °F - 66.6 °F 98% 29.92 in 10.0 mi ESE 4.6 mph - N/A   Mostly Cloudy
2:54 AM 67.1 °F - 66.2 °F 97% 29.91 in 5.0 mi East 3.5 mph - N/A   Mostly Cloudy
3:14 AM 67.1 °F - 66.4 °F 98% 29.91 in 7.0 mi ESE 3.5 mph - N/A   Mostly Cloudy
3:34 AM 67.1 °F - 66.4 °F 98% 29.90 in 3.0 mi East 3.5 mph - N/A   Overcast
3:54 AM 67.1 °F - 66.2 °F 97% 29.90 in 5.0 mi Calm Calm - N/A   Mostly Cloudy
4:14 AM 66.7 °F - 66.2 °F 98% 29.89 in 3.0 mi Calm Calm - N/A   Mostly Cloudy
4:34 AM 66.6 °F - 66.0 °F 98% 29.89 in 2.5 mi East 3.5 mph - N/A   Overcast
4:54 AM 66.7 °F - 66.2 °F 98% 29.89 in 4.0 mi ENE 3.5 mph - N/A   Overcast
5:14 AM 66.7 °F - 66.2 °F 98% 29.88 in 5.0 mi East 3.5 mph - N/A   Overcast
5:34 AM 66.7 °F - 66.2 °F 98% 29.88 in 5.0 mi East 3.5 mph - N/A   Overcast
5:54 AM 66.4 °F - 66.0 °F 99% 29.88 in 5.0 mi Calm Calm - N/A   Overcast
6:14 AM 66.2 °F - 65.7 °F 98% 29.89 in 3.0 mi Calm Calm - N/A   Overcast
6:34 AM 66.2 °F - 65.7 °F 98% 29.89 in 1.8 mi Calm Calm - N/A   Overcast
6:54 AM 66.2 °F - 65.7 °F 98% 29.89 in 2.0 mi SE 3.5 mph - N/A   Mostly Cloudy
7:14 AM 66.2 °F - 65.7 °F 98% 29.88 in 4.0 mi SSE 3.5 mph - N/A   Scattered Clouds
7:34 AM 66.4 °F - 65.8 °F 98% 29.89 in 10.0 mi Calm Calm - N/A   Mostly Cloudy
7:54 AM 67.6 °F - 66.4 °F 96% 29.89 in 10.0 mi SE 3.5 mph - N/A   Overcast
8:14 AM 68.0 °F - 66.2 °F 94% 29.89 in 10.0 mi SE 3.5 mph - N/A   Mostly Cloudy
8:34 AM 68.4 °F - 66.0 °F 92% 29.89 in 10.0 mi Calm Calm - N/A   Scattered Clouds
8:54 AM 68.4 °F - 65.7 °F 91% 29.88 in 10.0 mi SE 3.5 mph - N/A   Mostly Cloudy
9:14 AM 68.9 °F - 65.8 °F 90% 29.88 in 10.0 mi SE 4.6 mph - N/A   Overcast
9:34 AM 68.9 °F - 65.1 °F 88% 29.88 in 10.0 mi SSE 5.8 mph - N/A   Overcast
9:54 AM 69.1 °F - 64.4 °F 85% 29.89 in 10.0 mi SSE 3.5 mph - N/A   Overcast
10:14 AM 70.0 °F - 65.1 °F 85% 29.88 in 10.0 mi SSE 5.8 mph - N/A   Overcast
10:34 AM 71.1 °F - 64.6 °F 80% 29.88 in 10.0 mi SSE 6.9 mph - N/A   Scattered Clouds
10:54 AM 72.5 °F - 64.8 °F 77% 29.88 in 10.0 mi SSE 6.9 mph - N/A   Scattered Clouds
11:14 AM 74.1 °F - 65.7 °F 75% 29.88 in 10.0 mi South 4.6 mph - N/A   Mostly Cloudy
11:34 AM 75.0 °F - 65.3 °F 72% 29.88 in 10.0 mi South 6.9 mph - N/A   Mostly Cloudy
11:54 AM 75.7 °F - 65.1 °F 69% 29.88 in 10.0 mi SW 6.9 mph - N/A   Mostly Cloudy
12:14 PM 77.0 °F - 65.7 °F 68% 29.87 in 10.0 mi SSW 8.1 mph - N/A   Scattered Clouds
12:34 PM 77.5 °F - 65.7 °F 67% 29.87 in 10.0 mi SSW 6.9 mph - N/A   Mostly Cloudy
12:54 PM 77.9 °F - 65.1 °F 65% 29.87 in 10.0 mi SSW 6.9 mph - N/A   Mostly Cloudy
1:14 PM 78.4 °F - 65.8 °F 65% 29.87 in 10.0 mi SSW 8.1 mph - N/A   Clear
1:34 PM 79.7 °F - 64.0 °F 59% 29.87 in 10.0 mi South 12.7 mph 16.1 mph N/A   Clear
1:54 PM 80.4 °F 82.2 °F 65.1 °F 59% 29.86 in 10.0 mi SSW 9.2 mph - N/A   Clear
2:14 PM 80.6 °F 82.5 °F 65.5 °F 60% 29.85 in 10.0 mi South 6.9 mph - N/A   Scattered Clouds
2:34 PM 81.5 °F 83.4 °F 65.3 °F 58% 29.85 in 10.0 mi South 10.4 mph - N/A   Scattered Clouds
2:54 PM 82.6 °F 83.9 °F 63.7 °F 53% 29.85 in 10.0 mi SW 9.2 mph - N/A   Scattered Clouds
3:14 PM 82.2 °F 83.7 °F 64.2 °F 54% 29.84 in 10.0 mi SW 8.1 mph - N/A   Mostly Cloudy
3:34 PM 82.6 °F 84.1 °F 64.4 °F 54% 29.84 in 10.0 mi South 10.4 mph - N/A   Mostly Cloudy
3:54 PM 83.1 °F 84.6 °F 64.4 °F 53% 29.83 in 10.0 mi South 9.2 mph - N/A   Scattered Clouds
4:14 PM 82.9 °F 84.4 °F 64.2 °F 53% 29.82 in 10.0 mi SSW 10.4 mph - N/A   Scattered Clouds
4:34 PM 82.8 °F 84.0 °F 63.7 °F 52% 29.82 in 10.0 mi South 9.2 mph - N/A   Scattered Clouds
4:54 PM 82.9 °F 84.0 °F 63.1 °F 51% 29.81 in 10.0 mi SSW 8.1 mph - N/A   Scattered Clouds
5:14 PM 83.3 °F 84.3 °F 62.8 °F 50% 29.80 in 10.0 mi South 9.2 mph - N/A   Scattered Clouds
5:34 PM 83.3 °F 84.3 °F 63.1 °F 50% 29.79 in 10.0 mi South 8.1 mph - N/A   Scattered Clouds
5:54 PM 82.9 °F 84.0 °F 63.3 °F 51% 29.79 in 10.0 mi South 9.2 mph - N/A   Clear
6:14 PM 82.8 °F 83.8 °F 63.0 °F 51% 29.79 in 10.0 mi SSW 8.1 mph - N/A   Clear
6:34 PM 82.8 °F 84.2 °F 63.9 °F 53% 29.78 in 10.0 mi SSW 6.9 mph - N/A   Clear
6:54 PM 82.0 °F 83.6 °F 64.6 °F 55% 29.78 in 10.0 mi SSW 9.2 mph - N/A   Scattered Clouds
7:14 PM 82.0 °F 83.9 °F 65.3 °F 57% 29.77 in 10.0 mi SSW 10.4 mph - N/A   Clear
7:34 PM 81.7 °F 83.5 °F 65.3 °F 57% 29.77 in 10.0 mi SSW 9.2 mph - N/A   Clear
7:54 PM 81.1 °F 83.1 °F 65.5 °F 59% 29.76 in 10.0 mi SSW 8.1 mph - N/A   Clear
8:14 PM 80.6 °F 82.4 °F 65.1 °F 59% 29.76 in 10.0 mi SSW 6.9 mph - N/A   Clear
8:34 PM 79.7 °F - 65.1 °F 61% 29.76 in 10.0 mi SSW 5.8 mph - N/A   Clear
8:54 PM 77.9 °F - 66.2 °F 67% 29.77 in 10.0 mi SSW 5.8 mph - N/A   Clear
9:14 PM 77.0 °F - 66.6 °F 70% 29.78 in 10.0 mi SW 4.6 mph - N/A   Clear
9:34 PM 76.1 °F - 66.6 °F 72% 29.78 in 10.0 mi SSW 4.6 mph - N/A   Clear
9:54 PM 74.3 °F - 66.7 °F 77% 29.77 in 10.0 mi South 6.9 mph - N/A   Clear
10:14 PM 72.9 °F - 66.6 °F 81% 29.77 in 10.0 mi South 8.1 mph - N/A   Clear
10:34 PM 73.0 °F - 66.7 °F 81% 29.77 in 10.0 mi South 6.9 mph - N/A   Clear
10:54 PM 72.7 °F - 66.6 °F 81% 29.77 in 10.0 mi South 5.8 mph - N/A   Clear
11:14 PM 72.7 °F - 66.6 °F 81% 29.79 in 10.0 mi South 5.8 mph - N/A   Clear
11:34 PM 72.7 °F - 66.6 °F 81% 29.79 in 10.0 mi South 5.8 mph - N/A   Clear
11:54 PM 72.1 °F - 66.4 °F 82% 29.78 in 10.0 mi South 4.6 mph - N/A   Scattered Clouds